GLOBALSTAR M019 (25677 NORAD) Tracking and Keplerian Element Data

This shows tracking and keplerian element data for the satellite.

Feedback or suggestion? Click here.




ElementValue
Catalog25677
NameGLOBALSTAR M019
Epoch Orbit16917
Epoch Day35.10716913
Epoch Year2025
RAAN85.5753
Inclination51.988
Eccentricity0.0001242
Argument of Perigee77.9357
Mean Anonmoly297.7432
Mean Motion12.13871278
Decay Rate5.7E-07
L11 25677U 99019B 25035.10716913 .00000057 00000+0 15373-2 0 9990
L22 25677 51.9880 85.5753 0001242 77.9357 297.7432 12.13871278169178



Live tracking and technical data element details for GLOBALSTAR M019 (NORAD 25677). GLOBALSTAR M019 can be tracked NOW for your location showing map with azimuth and elevation plus other details from your city location.







IsCatalogInMostPopularTable: catalog: 25677, numindb: 386
Update: records affected: 1



GetName: 25677 GLOBALSTAR M019

Hit Count: updated at: Fri, 16 May 2025 11:03:31 GMT